Theta_e
326 326 325 325 325 325 325 325 325 325 325 325 324 325 325 326 326 326 326 326 326 326 326 326 326 325 325 325 325 324 323 323 323 323 322 322 321 321 320 320 321 320
326 325 325 325 325 325 325 326 326 325 325 325 325 325 326 326 327 326 326 326 326 326 326 326 326 325 325 324 324 323 322 322 322 322 322 322 321 321 321 321 321 321
326 325 325 324 324 325 325 325 326 326 325 325 326 326 326 327 327 326 326 326 325 325 325 326 326 325 325 325 324 324 322 322 321 322 321 321 321 321 321 321 321 321
326 326 325 325 325 325 325 325 325 325 325 325 325 326 326 327 326 326 326 322 325 325 325 325 325 325 325 324 324 323 323 322 323 323 322 321 321 321 321 321 320 321
326 326 326 326 326 326 325 325 324 325 325 325 326 326 325 325 325 325 325 325 325 325 325 325 325 325 324 324 323 322 322 322 322 322 321 321 321 321 321 321 320 319
325 326 326 326 326 325 325 324 325 325 325 325 325 325 325 325 325 325 325 324 324 324 324 325 324 324 324 324 323 322 322 321 322 322 321 320 321 321 321 321 320 319
323 324 325 326 325 326 325 325 325 324 325 326 326 325 325 325 325 325 325 324 324 324 324 324 324 323 323 323 322 321 322 321 321 321 320 320 320 320 320 320 320 319
321 323 325 325 325 325 325 325 325 325 325 325 325 325 325 325 325 325 325 325 324 324 324 324 324 323 323 323 322 321 321 321 321 320 320 320 320 319 320 320 319 318
321 322 323 324 324 325 325 325 325 326 326 325 324 325 325 325 325 325 325 324 324 324 324 323 324 323 323 323 322 321 320 320 320 320 320 319 319 319 319 320 319 317
318 320 321 322 322 324 324 325 325 326 325 325 325 325 324 325 325 325 324 324 323 323 323 323 323 323 323 322 322 321 320 320 320 320 320 320 319 319 319 318 318 317
316 318 319 320 321 322 323 324 324 325 325 325 325 324 325 325 324 324 324 323 323 322 322 322 322 322 322 322 322 321 321 320 320 320 320 320 319 319 312 318 318 317
313 315 316 317 319 320 321 322 323 323 324 324 324 324 324 324 324 323 322 322 322 322 323 322 323 322 322 322 322 321 321 320 320 320 320 320 320 319 319 319 318 318
310 311 313 314 316 317 318 319 320 321 321 322 323 323 322 322 323 323 322 322 322 322 322 322 322 322 322 322 321 321 320 320 319 319 319 320 320 320 320 319 319 318
308 310 310 311 312 313 313 314 315 317 318 319 319 320 320 321 321 322 322 322 321 322 322 322 321 321 322 321 321 321 320 320 319 318 319 319 319 319 319 319 319 318
306 306 307 307 307 309 309 310 312 313 314 315 316 317 318 319 320 321 321 321 321 320 320 321 320 320 321 321 321 320 320 319 319 318 318 317 318 318 319 318 319 319
303 303 303 304 304 305 307 308 309 310 311 312 313 314 315 317 318 318 319 319 319 319 318 319 320 320 308 306 308 318 320 319 319 318 317 317 316 316 316 317 318 318
302 303 303 302 302 302 303 304 305 307 308 309 310 312 313 314 315 315 316 317 317 317 317 317 317 316 305 305 304 304 313 319 318 318 318 317 316 315 315 315 316 316
301 301 301 301 301 301 301 302 302 302 303 305 306 307 309 311 312 312 314 315 316 316 316 317 317 306 305 304 303 303 302 313 318 318 318 317 316 316 316 315 315 315
301 300 300 300 301 301 301 300 300 301 301 302 303 305 307 307 309 310 311 313 313 314 314 315 315 307 304 303 303 302 302 304 315 317 317 316 316 315 315 315 314 313
300 300 300 300 300 300 300 299 299 299 300 301 302 302 303 305 306 308 309 310 311 312 312 313 314 306 303 302 301 301 301 302 310 313 315 315 315 315 315 314 314 313
301 301 300 300 300 300 300 299 298 299 299 300 300 300 301 302 303 304 306 307 308 310 310 310 312 303 302 301 301 300 301 300 308 311 312 313 315 315 314 314 314 314
301 301 300 300 300 299 298 298 298 298 298 299 299 299 299 300 301 303 303 305 305 306 307 308 309 302 301 300 300 300 300 303 307 309 310 311 312 313 314 314 314 313
300 300 300 299 299 298 298 298 298 298 298 298 297 297 297 298 299 300 302 303 303 303 305 306 307 302 299 299 299 299 300 305 307 307 308 309 310 311 313 313 312 312
299 299 299 299 299 298 298 298 298 298 298 298 297 297 297 298 299 299 300 301 301 302 303 303 304 301 298 298 298 298 299 306 306 306 306 306 307 308 310 311 308 297
298 298 298 298 297 297 298 297 297 297 296 297 297 298 298 298 298 298 299 298 300 300 293 298 301 299 296 297 296 297 298 303 306 305 304 304 305 304 302 302 302 296
297 296 296 296 296 296 296 296 295 294 296 295 296 297 297 297 297 297 297 297 298 297 297 297 297 299 298 296 296 296 296 300 303 303 301 303 302 302 301 298 298 299
Wind_Speed
13 12 12 12 13 12 12 12 12 12 12 11 11 11 11 10 11 12 14 13 14 14 15 16 15 15 15 16 15 15 14 16 15 15 16 16 17 19 17 18 16 15
14 13 11 11 11 11 12 12 12 12 12 12 11 11 10 10 11 12 12 13 13 14 14 14 14 15 16 15 16 16 15 16 16 11 15 18 18 17 19 18 17 16
14 14 14 15 14 15 14 12 12 12 12 12 12 11 10 9 10 11 12 12 13 13 14 14 14 15 16 17 16 15 15 16 17 16 15 17 17 17 16 17 16 16
15 15 14 14 14 14 12 11 12 11 11 11 12 11 10 8 10 11 11 13 12 13 13 14 15 15 16 18 16 15 17 17 17 16 16 14 15 17 17 15 15 13
12 13 13 12 12 12 11 11 13 12 13 13 11 11 11 11 10 12 11 11 12 13 12 13 14 14 16 17 17 16 16 16 16 16 16 16 15 16 16 15 13 14
11 11 11 12 12 11 11 13 13 13 13 13 14 11 11 11 11 12 12 12 11 12 12 12 13 13 16 17 16 16 16 16 16 17 17 17 16 13 13 15 17 16
12 11 12 11 12 12 13 13 13 12 12 12 10 12 11 10 11 12 12 12 12 12 13 13 13 13 13 15 16 17 17 17 16 17 18 16 14 14 15 15 17 14
12 11 10 11 12 12 13 13 12 12 11 10 11 11 10 11 12 11 11 12 12 13 13 14 14 14 14 16 16 17 18 13 16 17 18 18 13 13 17 13 14 14
9 10 10 10 11 11 12 12 11 10 9 9 10 10 9 10 11 11 11 12 12 12 13 14 15 14 13 16 16 18 18 17 16 16 18 16 14 15 16 15 15 13
9 9 9 9 10 10 10 11 9 8 8 9 10 9 10 9 10 12 11 12 13 13 14 13 13 13 14 16 18 18 18 18 17 16 16 15 14 15 14 14 15 14
8 7 8 9 10 9 11 10 10 9 8 10 10 10 10 10 10 11 12 12 12 14 14 14 14 15 15 18 17 17 18 18 17 16 15 14 15 15 14 15 15 15
7 7 9 10 10 10 11 10 10 10 10 9 10 12 12 13 12 10 10 13 13 14 15 14 14 14 18 18 19 18 18 18 16 15 15 15 16 15 15 15 15 15
6 7 7 7 8 8 8 7 8 8 9 9 8 10 11 12 14 14 13 13 14 16 17 17 18 17 18 18 18 19 19 18 15 15 15 14 14 15 15 15 15 15
6 5 6 6 6 6 7 7 7 8 8 8 8 10 11 12 13 13 13 13 15 16 17 16 17 17 17 19 19 18 17 14 14 14 14 14 15 15 15 15 15 15
5 5 5 6 7 7 7 8 7 7 8 8 9 10 9 10 11 12 13 15 15 16 17 16 16 16 15 17 19 20 19 19 17 15 15 14 14 15 15 15 14 14
4 4 4 5 5 6 6 6 6 7 7 8 9 10 10 10 10 11 13 16 16 16 15 12 13 14 14 20 17 15 17 15 14 13 14 14 14 14 14 15 15 14
4 4 3 5 5 5 5 6 7 6 8 9 9 9 10 9 9 12 14 15 15 16 16 13 14 13 18 17 19 20 16 16 16 13 13 14 14 14 15 14 13 14
5 5 5 5 4 5 4 5 6 7 8 9 9 9 8 7 9 12 12 12 11 14 16 15 16 15 17 18 20 21 18 15 13 12 12 13 13 14 14 13 13 13
5 5 5 5 5 4 4 4 6 7 8 8 9 8 6 8 10 10 12 11 11 15 16 15 15 17 16 20 20 20 20 19 14 15 13 13 13 14 14 13 12 12
5 5 6 7 6 5 5 5 6 7 8 7 7 7 8 9 9 11 11 11 12 13 13 13 14 16 17 19 19 19 19 18 13 17 15 14 14 13 13 13 13 12
6 6 7 7 7 6 5 6 6 8 7 7 6 7 7 8 9 9 10 10 10 10 11 13 13 16 15 17 17 18 19 17 15 15 14 15 15 14 14 13 13 13
7 7 7 7 7 6 6 7 7 7 8 6 6 7 7 7 8 8 10 9 9 10 11 13 15 16 15 16 17 17 18 13 14 14 14 14 14 14 13 12 12 12
10 9 9 8 7 7 7 7 7 7 7 5 7 7 7 7 8 8 8 9 11 11 12 13 15 14 14 16 16 17 13 12 13 12 13 14 14 13 12 12 12 12
10 10 9 8 7 8 8 7 7 6 7 5 7 7 7 8 7 7 8 8 11 12 11 13 15 14 13 14 15 16 15 13 11 11 13 13 12 11 11 11 11 15
8 9 9 9 8 8 7 8 8 7 5 4 7 7 8 7 6 7 8 6 9 12 13 14 16 15 12 14 15 15 14 12 11 10 12 12 10 10 9 8 8 10
6 7 7 8 9 9 8 8 6 5 7 7 7 6 7 6 6 7 9 9 9 10 12 12 14 15 12 14 15 15 16 13 10 11 12 12 9 10 10 8 8 8
Wind_Direction
219 218 221 220 224 227 227 224 223 223 223 222 224 223 217 215 203 201 206 209 212 216 218 223 223 225 228 229 226 226 228 228 226 227 226 227 231 231 232 229 226 229
219 218 218 220 225 225 227 226 225 224 227 225 226 227 224 213 204 198 204 207 210 214 215 216 217 224 228 228 226 226 227 229 230 223 226 227 230 231 233 230 228 228
218 216 216 218 222 226 224 223 224 227 230 230 229 226 224 212 206 202 207 208 212 214 214 216 217 222 228 229 227 227 227 229 231 229 226 228 228 232 233 232 232 226
218 218 219 222 224 228 226 225 224 227 230 232 228 225 218 210 207 211 209 207 214 215 214 214 218 222 228 231 230 230 231 231 232 230 229 227 229 231 233 231 231 226
222 221 223 225 225 225 226 225 227 226 228 230 231 224 218 215 213 218 213 210 211 217 216 216 215 219 228 231 229 231 230 233 231 231 231 230 227 227 231 230 226 226
231 227 226 226 225 223 224 227 231 230 229 230 227 223 224 221 219 217 214 213 212 215 217 217 215 216 228 234 231 229 230 231 231 229 230 231 230 224 228 229 230 227
234 229 228 226 227 225 227 230 231 230 229 230 229 229 227 224 222 221 219 217 215 213 218 218 216 216 223 230 229 229 230 231 231 230 231 231 230 228 228 229 231 226
234 234 230 227 226 227 228 232 232 230 229 228 232 233 224 226 226 224 221 220 218 220 218 220 220 219 222 229 229 229 230 228 229 228 231 233 227 229 230 227 229 224
241 238 234 232 231 233 234 234 236 237 233 227 231 236 232 226 229 228 224 220 223 223 223 222 222 221 223 231 231 230 228 226 225 225 228 228 225 226 228 229 229 224
243 245 245 242 241 243 245 246 244 245 238 237 239 239 235 230 225 230 227 222 223 225 224 224 222 222 225 233 233 230 229 227 225 225 224 225 225 225 223 226 228 226
247 247 245 243 242 244 245 246 245 244 240 237 239 238 236 234 226 223 228 224 224 227 228 227 228 227 228 234 233 231 231 230 228 226 223 223 225 226 225 226 227 226
252 247 244 242 242 242 242 242 241 239 239 236 231 241 243 243 234 224 219 228 232 237 235 231 229 226 234 233 234 233 233 230 227 223 225 225 226 227 227 226 229 228
253 246 245 245 243 245 248 245 242 242 238 239 229 232 238 244 245 243 241 237 235 242 242 240 242 237 235 234 235 235 233 231 226 226 228 228 229 228 227 228 229 230
261 268 268 264 267 269 265 261 257 250 246 245 240 236 237 242 244 243 243 239 239 240 243 242 240 239 237 235 235 235 234 229 226 227 228 229 230 229 228 228 230 229
255 253 257 260 259 259 258 258 256 253 248 241 236 238 235 237 241 244 243 241 239 237 240 239 237 235 232 234 234 233 233 235 230 224 225 229 231 231 229 229 230 230
264 253 254 258 265 266 272 279 279 272 262 251 242 237 237 235 235 240 242 242 242 239 235 232 233 237 228 227 229 233 235 235 232 227 226 227 230 232 232 230 229 230
286 284 281 281 279 283 280 279 275 270 266 262 258 251 243 239 234 240 242 244 243 243 240 232 234 235 231 227 231 229 231 235 234 231 227 227 229 229 232 230 230 229
297 300 288 273 264 264 260 262 262 263 262 259 258 257 254 250 244 240 244 243 242 245 245 240 238 232 225 227 227 226 224 232 239 238 232 230 228 229 231 230 229 228
287 287 287 282 275 272 265 266 264 264 262 260 261 264 269 258 251 247 246 246 244 248 247 244 245 238 223 226 227 225 223 224 239 241 238 234 231 229 229 229 227 227
299 294 286 281 282 285 285 281 276 270 270 273 280 282 268 265 261 257 256 251 247 251 256 254 250 244 227 227 227 224 222 218 232 237 238 239 235 230 229 228 225 225
297 292 289 290 292 292 292 281 274 276 275 271 271 267 263 257 259 256 254 257 257 254 259 260 256 251 237 233 229 224 223 217 230 234 236 239 237 233 229 227 225 224
310 299 291 286 286 289 281 274 267 265 272 266 259 260 251 259 261 257 263 255 252 254 256 259 259 254 243 239 231 227 220 220 230 233 236 238 238 235 230 228 226 222
311 301 295 290 289 288 280 271 269 265 256 241 259 252 259 252 254 254 255 261 263 258 254 260 266 258 241 239 232 226 219 226 230 234 236 238 238 236 233 231 226 220
305 298 290 286 287 281 277 275 274 272 270 259 260 266 257 247 251 262 254 253 258 260 253 260 266 259 241 240 233 226 218 227 232 234 240 239 242 237 235 235 227 214
287 290 291 291 290 280 273 272 268 266 270 258 253 259 260 263 256 262 263 252 252 258 262 258 265 268 250 243 234 230 222 230 232 233 240 239 236 240 236 234 228 215
296 290 285 286 280 279 277 268 266 262 249 245 247 248 260 262 256 255 265 265 258 254 256 251 260 267 259 244 238 233 224 225 231 233 237 238 232 234 234 230 224 220